FW2439 Weather Reports


time (UTC)temp
F
wind
direction
speed
knots
gust
knots
rain 1hr
in
rain 24hr
in
rain mn
in
humidity
%
barometer
mb
20260903003049 86 268 0.0 0.0 0.00 0.00 0.00 74 1015.2
20260903001601 87 268 0.0 0.0 0.00 0.00 0.00 71 1015.3
20260903000047 89 268 0.0 0.0 0.00 0.00 0.00 69 1015.2
20260902234547 91 268 0.0 0.0 0.00 0.00 0.00 66 1015.3
20260902233047 92 268 0.0 0.0 0.00 0.00 0.00 63 1015.3
20260902231546 93 267 0.0 0.0 0.00 0.00 0.00 61 1015.3
20260902230047 94 267 0.0 0.9 0.00 0.00 0.00 59 1015.3
20260902224552 96 305 0.0 1.7 0.00 0.00 0.00 55 1015.4
20260902223044 97 283 0.0 2.6 0.00 0.00 0.00 53 1015.4
20260902221547 98 236 0.0 1.7 0.00 0.00 0.00 52 1015.5
20260902220051 98 264 0.9 2.6 0.00 0.00 0.00 52 1015.5
20260902214541 98 245 0.0 3.5 0.00 0.00 0.00 52 1015.6
20260902213047 98 249 0.9 4.3 0.00 0.00 0.00 50 1015.6
20260902211537 97 290 0.0 1.7 0.00 0.00 0.00 51 1015.7
20260902210036 97 280 0.0 2.6 0.00 0.00 0.00 52 1015.8
20260902204535 97 298 0.9 2.6 0.00 0.00 0.00 52 1015.9
20260902203032 97 248 0.0 1.7 0.00 0.00 0.00 50 1016.1
20260902201530 97 248 0.0 0.9 0.00 0.00 0.00 52 1016.3
20260902200030 99 319 0.9 4.3 0.00 0.00 0.00 48 1016.4
20260902194525 98 277 0.0 2.6 0.00 0.00 0.00 53 1016.5
20260902193025 98 232 1.7 3.5 0.00 0.00 0.00 52 1016.6
20260902191522 97 231 0.9 5.2 0.00 0.00 0.00 51 1016.9
20260902190031 98 252 0.0 1.7 0.00 0.00 0.00 52 1017.0
20260902184515 97 226 0.9 4.3 0.00 0.00 0.00 52 1017.2
20260902183014 96 191 0.9 3.5 0.00 0.00 0.00 57 1017.3
20260902181512 96 185 0.9 3.5 0.00 0.00 0.00 53 1017.4
20260902180014 95 233 0.0 2.6 0.00 0.00 0.00 56 1017.6
20260902174507 95 269 0.9 4.3 0.00 0.00 0.00 53 1017.7
20260902173009 95 205 0.0 5.2 0.00 0.00 0.00 56 1018.0
20260902171505 96 208 0.0 3.5 0.00 0.00 0.00 56 1018.1
20260902170100 94 262 0.0 3.5 0.00 0.00 0.00 62 1018.3
20260902164603 94 25 0.9 4.3 0.00 0.00 0.00 59 1018.6
20260902163057 94 313 0.9 3.5 0.00 0.00 0.00 61 1018.8
20260902161555 94 248 0.0 3.5 0.00 0.00 0.00 59 1018.8
20260902160053 94 236 0.9 2.6 0.00 0.00 0.00 62 1018.8
20260902154552 93 264 0.9 2.6 0.00 0.00 0.00 60 1019.0
20260902153052 93 230 0.0 2.6 0.00 0.00 0.00 64 1018.9
20260902151545 92 212 0.0 1.7 0.00 0.00 0.00 64 1019.2
20260902150040 91 198 0.9 1.7 0.00 0.00 0.00 65 1019.3
20260902144537 90 228 0.0 1.7 0.00 0.00 0.00 68 1019.3
20260902143033 87 222 0.0 1.7 0.00 0.00 0.00 73 1019.2
20260902141534 84 222 0.0 2.6 0.00 0.00 0.00 80 1019.2
20260902140026 80 231 0.0 0.9 0.00 0.00 0.00 87 1019.2
20260902134524 77 226 0.0 1.7 0.00 0.00 0.00 94 1019.4
20260902133025 75 265 0.0 0.9 0.00 0.00 0.00 98 1019.3
20260902131511 74 266 0.0 0.0 0.00 0.00 0.00 100 1019.2
20260902130008 73 265 0.0 0.0 0.00 0.00 0.00 100 1019.2
20260902124510 72 265 0.0 0.0 0.00 0.00 0.00 100 1019.0
20260902123005 71 266 0.0 0.0 0.00 0.00 0.00 99 1019.0
20260902121503 70 266 0.0 0.0 0.00 0.00 0.00 99 1018.8
20260902120002 70 266 0.0 0.0 0.00 0.00 0.00 99 1018.6
20260902114601 70 266 0.0 0.0 0.00 0.00 0.00 99 1018.5
20260902113107 70 266 0.0 0.0 0.00 0.00 0.00 98 1018.4
20260902111557 70 266 0.0 0.0 0.00 0.00 0.00 98 1018.2
20260902110057 70 266 0.0 0.0 0.00 0.00 0.00 99 1017.9
20260902104556 70 266 0.0 0.0 0.00 0.00 0.00 98 1018.0
20260902103054 70 266 0.0 0.0 0.00 0.00 0.00 98 1017.9
20260902101552 71 266 0.0 0.0 0.00 0.00 0.00 98 1017.7
20260902100052 71 266 0.0 0.0 0.00 0.00 0.00 98 1017.7
20260902094555 71 266 0.0 0.0 0.00 0.00 0.00 98 1017.5
20260902093049 71 265 0.0 0.0 0.00 0.00 0.00 98 1017.4
20260902091549 71 266 0.0 0.0 0.00 0.00 0.00 98 1017.5
20260902090045 71 266 0.0 0.0 0.00 0.00 0.00 97 1017.3
20260902084548 71 266 0.0 0.0 0.00 0.00 0.00 97 1017.3
20260902083045 71 266 0.0 0.0 0.00 0.00 0.00 97 1017.2
20260902081551 72 266 0.0 0.0 0.00 0.00 0.00 97 1017.1
20260902080042 72 266 0.0 0.0 0.00 0.00 0.00 97 1017.2
20260902074559 72 266 0.0 0.0 0.00 0.00 0.00 96 1017.1
20260902073041 72 266 0.0 0.0 0.00 0.00 0.00 96 1017.1
20260902071539 72 266 0.0 0.0 0.00 0.00 0.00 96 1017.2
20260902070039 72 266 0.0 0.0 0.00 0.00 0.00 96 1017.1
20260902064537 73 265 0.0 0.0 0.00 0.00 0.00 96 1017.1
20260902063055 73 266 0.0 0.0 0.00 0.00 0.00 95 1017.3
20260902061534 73 266 0.0 0.0 0.00 0.00 0.00 95 1017.3
20260902060034 73 266 0.0 0.0 0.00 0.00 0.00 95 1017.3
20260902054534 73 266 0.0 0.0 0.00 0.00 0.00 95 1017.2
20260902053030 73 266 0.0 0.0 0.00 0.00 0.00 95 1017.3
20260902051537 74 266 0.0 0.0 0.00 0.00 0.00 95 1017.0
20260902050029 74 266 0.0 0.0 0.00 0.00 0.00 95 1016.9
20260902044523 74 266 0.0 0.0 0.00 0.00 0.00 94 1017.0
20260902043021 74 266 0.0 0.0 0.00 0.00 0.00 94 1017.0
20260902041539 75 266 0.0 0.0 0.00 0.00 0.00 94 1017.0
20260902040025 75 266 0.0 0.0 0.00 0.00 0.00 93 1017.0
20260902034519 75 266 0.0 0.0 0.00 0.00 0.00 92 1017.0
20260902033019 76 266 0.0 0.0 0.00 0.00 0.00 92 1017.1
20260902031518 77 266 0.0 0.0 0.00 0.00 0.00 92 1017.1
20260902030018 77 266 0.0 0.0 0.00 0.00 0.00 91 1017.2
20260902024516 77 266 0.0 0.0 0.00 0.00 0.00 90 1017.1
20260902023017 78 266 0.0 0.0 0.00 0.00 0.00 89 1017.0
20260902021517 78 266 0.0 0.0 0.00 0.00 0.00 87 1016.9
20260902020016 79 266 0.0 0.0 0.00 0.00 0.00 85 1016.7
20260902014523 80 266 0.0 0.0 0.00 0.00 0.00 84 1016.6
20260902013014 81 266 0.0 0.0 0.00 0.00 0.00 83 1016.4
20260902011518 82 266 0.0 0.0 0.00 0.00 0.00 81 1016.3
20260902010012 83 266 0.0 0.0 0.00 0.00 0.00 79 1016.0
20260902004522 84 266 0.0 0.0 0.00 0.00 0.00 77 1016.1